Date String (YYYY-MM-DD hh:mm:ss) UTC,Instrument flags,Ambient pressure (hPa),Sample flow (lpm),Bypass flow (lpm),Sample temperature (°C),Ambient temperature (°C),ASC tube jacket temperature (°C),LED temperature (°C),Box temperature (°C),Sample RH (%),Span deviation,Mass concentration (μg/m³),Mass concentration (μg/m³),Mass concentration (μg/m³)
DateTimeUTC,F1_M11,P_M11,Q1_M11,Q2_M11,T1_M11,T2_M11,T3_M11,T4_M11,T5_M11,U1_M11,ZSPAN_M11,X0_M11,X2_M11,X1_M11
2022-02-09 05:00:00,,0825.6,4.99,0.00,22.6,21.6,00.0,31.7,24.3,05.4,0000.0,0003.04,0001.02,0000.68
2022-02-09 05:01:00,,0825.7,5.01,0.00,22.6,21.6,00.0,31.7,24.3,05.6,0000.0,0003.00,0001.02,0000.67
2022-02-09 05:02:00,,0825.7,4.99,0.00,22.6,21.6,00.0,31.7,24.3,05.6,0000.0,0002.86,0001.01,0000.68
2022-02-09 05:03:00,,0825.8,5.02,0.00,22.6,21.6,00.0,31.7,24.1,05.8,0000.0,0002.76,0001.00,0000.69
2022-02-09 05:04:00,,0825.7,4.98,0.00,22.6,21.6,00.0,31.7,24.2,05.8,0000.0,0002.64,0000.97,0000.68
2022-02-09 05:05:00,,0825.7,5.01,0.00,22.6,21.6,00.0,31.7,24.3,05.5,0000.0,0002.37,0000.95,0000.68
2022-02-09 05:06:00,,0825.8,5.00,0.00,22.6,21.6,00.0,31.7,24.3,05.4,0000.0,0002.35,0000.95,0000.70
2022-02-09 05:07:00,,0825.8,4.99,0.00,22.5,21.6,00.0,31.6,24.2,05.4,0000.0,0002.54,0000.97,0000.71
2022-02-09 05:08:00,,0826.0,5.02,0.00,22.5,21.6,00.0,31.6,24.2,05.5,0000.0,0001.60,0000.95,0000.71
2022-02-09 05:09:00,,0826.0,4.99,0.00,22.5,21.6,00.0,31.6,24.2,05.8,0000.0,0001.59,0000.95,0000.72
2022-02-09 05:10:00,,0826.0,5.00,0.00,22.5,21.6,00.0,31.6,24.2,05.9,0000.0,0001.84,0000.98,0000.73
2022-02-09 05:11:00,,0826.0,5.01,0.00,22.5,21.6,00.0,31.6,24.2,05.8,0000.0,0001.94,0001.01,0000.73
2022-02-09 05:12:00,,0826.0,4.98,0.00,22.5,21.6,00.0,31.6,24.2,05.8,0000.0,0002.04,0001.05,0000.74
2022-02-09 05:13:00,,0826.1,4.99,0.00,22.5,21.5,00.0,31.6,24.1,05.8,0000.0,0002.12,0001.06,0000.73
2022-02-09 05:14:00,,0826.1,5.02,0.00,22.5,21.5,00.0,31.6,24.1,05.8,0000.0,0002.20,0001.07,0000.74
2022-02-09 05:15:00,,0826.1,4.98,0.00,22.4,21.5,00.0,31.6,24.2,05.8,0000.0,0002.32,0001.08,0000.75
2022-02-09 05:16:00,,0826.1,5.01,0.00,22.4,21.5,00.0,31.5,24.1,05.8,0000.0,0002.36,0001.10,0000.76
2022-02-09 05:17:00,,0826.1,5.01,0.00,22.4,21.5,00.0,31.5,24.1,05.8,0000.0,0002.65,0001.08,0000.75
2022-02-09 05:18:00,,0826.1,4.99,0.00,22.4,21.5,00.0,31.5,24.0,05.9,0000.0,0003.53,0001.04,0000.75
2022-02-09 05:19:00,,0826.2,5.02,0.00,22.4,21.5,00.0,31.5,24.0,05.8,0000.0,0003.43,0001.04,0000.74
2022-02-09 05:20:00,,0826.3,5.00,0.00,22.3,21.5,00.0,31.5,23.9,06.0,0000.0,0003.45,0001.05,0000.74
2022-02-09 05:21:00,,0826.3,5.00,0.00,22.4,21.4,00.0,31.5,23.9,06.2,0000.0,0003.35,0001.07,0000.75
2022-02-09 05:22:00,,0826.3,5.01,0.00,22.3,21.4,00.0,31.5,23.9,06.1,0000.0,0003.26,0001.06,0000.76
2022-02-09 05:23:00,,0826.3,4.99,0.00,22.4,21.4,00.0,31.5,24.0,06.0,0000.0,0003.23,0001.05,0000.76
2022-02-09 05:24:00,,0826.3,5.01,0.00,22.3,21.4,00.0,31.4,23.9,06.1,0000.0,0003.08,0001.01,0000.76
2022-02-09 05:25:00,,0826.4,4.99,0.00,22.3,21.3,00.0,31.4,23.8,06.0,0000.0,0003.09,0001.02,0000.76
2022-02-09 05:26:00,,0826.5,5.00,0.00,22.3,21.3,00.0,31.4,23.8,06.1,0000.0,0003.12,0001.06,0000.75
2022-02-09 05:27:00,,0826.4,5.00,0.00,22.3,21.3,00.0,31.4,23.8,06.0,0000.0,0003.08,0001.05,0000.75
2022-02-09 05:28:00,,0826.3,4.99,0.00,22.3,21.4,00.0,31.4,23.9,05.9,0000.0,0002.91,0001.03,0000.74
2022-02-09 05:29:00,,0826.4,5.00,0.00,22.3,21.4,00.0,31.4,24.0,05.9,0000.0,0001.70,0001.04,0000.74
2022-02-09 05:30:00,,0826.4,4.99,0.00,22.3,21.4,00.0,31.4,23.9,05.8,0000.0,0001.97,0001.06,0000.74
2022-02-09 05:31:00,,0826.5,5.01,0.00,22.3,21.4,00.0,31.4,23.9,05.9,0000.0,0002.30,0001.07,0000.74
2022-02-09 05:32:00,,0826.5,4.99,0.00,22.3,21.4,00.0,31.4,23.7,06.1,0000.0,0003.40,0001.05,0000.73
2022-02-09 05:33:00,,0826.6,5.01,0.00,22.3,21.3,00.0,31.4,23.8,06.1,0000.0,0003.77,0001.05,0000.72
2022-02-09 05:34:00,,0826.6,5.00,0.00,22.2,21.2,00.0,31.4,23.8,06.1,0000.0,0004.06,0001.06,0000.72
2022-02-09 05:35:00,,0826.5,5.01,0.00,22.2,21.3,00.0,31.4,23.8,06.0,0000.0,0004.05,0001.06,0000.71
2022-02-09 05:36:00,,0826.5,4.99,0.00,22.2,21.3,00.0,31.4,23.8,06.0,0000.0,0004.13,0001.08,0000.72
2022-02-09 05:37:00,,0826.5,5.02,0.00,22.2,21.3,00.0,31.3,23.9,06.1,0000.0,0004.11,0001.06,0000.71
2022-02-09 05:38:00,,0826.7,5.01,0.00,22.2,21.3,00.0,31.3,23.8,06.2,0000.0,0004.23,0001.07,0000.71
2022-02-09 05:39:00,,0826.6,4.99,0.00,22.2,21.2,00.0,31.3,23.8,06.3,0000.0,0004.35,0001.08,0000.70
2022-02-09 05:40:00,,0826.6,5.01,0.00,22.2,21.2,00.0,31.3,23.9,06.1,0000.0,0004.37,0001.09,0000.70
2022-02-09 05:41:00,,0826.6,5.00,0.00,22.2,21.2,00.0,31.3,23.9,06.1,0000.0,0004.04,0001.04,0000.69
2022-02-09 05:42:00,,0826.8,5.00,0.00,22.2,21.3,00.0,31.3,23.9,06.1,0000.0,0003.90,0000.99,0000.69
2022-02-09 05:43:00,,0826.7,5.00,0.00,22.2,21.3,00.0,31.3,23.8,06.1,0000.0,0002.54,0000.99,0000.68
2022-02-09 05:44:00,,0826.8,5.00,0.00,22.2,21.2,00.0,31.3,23.6,06.0,0000.0,0002.21,0000.98,0000.66
2022-02-09 05:45:00,,0826.8,5.01,0.00,22.2,21.3,00.0,31.3,23.7,06.0,0000.0,0001.76,0000.96,0000.66
2022-02-09 05:46:00,,0826.7,5.00,0.00,22.2,21.3,00.0,31.3,23.8,06.0,0000.0,0001.91,0000.98,0000.66
2022-02-09 05:47:00,,0826.8,5.02,0.00,22.2,21.3,00.0,31.3,23.8,05.9,0000.0,0001.95,0000.95,0000.65
2022-02-09 05:48:00,,0826.9,4.99,0.00,22.2,21.3,00.0,31.3,23.8,06.0,0000.0,0001.85,0000.92,0000.64
2022-02-09 05:49:00,,0827.0,5.00,0.00,22.2,21.3,00.0,31.3,23.8,06.1,0000.0,0001.79,0000.93,0000.64
2022-02-09 05:50:00,,0826.8,4.99,0.00,22.2,21.4,00.0,31.3,23.9,06.0,0000.0,0001.65,0000.90,0000.64
2022-02-09 05:51:00,,0826.9,5.02,0.00,22.2,21.4,00.0,31.3,24.0,06.1,0000.0,0001.76,0000.93,0000.64
2022-02-09 05:52:00,,0826.9,4.99,0.00,22.2,21.4,00.0,31.3,24.0,06.2,0000.0,0001.86,0000.95,0000.66
2022-02-09 05:53:00,,0826.9,4.99,0.00,22.2,21.4,00.0,31.3,24.0,06.5,0000.0,0001.96,0001.01,0000.68
2022-02-09 05:54:00,,0826.9,5.00,0.00,22.3,21.5,00.0,31.3,24.0,06.5,0000.0,0002.02,0001.05,0000.71
2022-02-09 05:55:00,,0827.0,5.02,0.00,22.3,21.5,00.0,31.3,24.1,06.4,0000.0,0002.13,0001.08,0000.74
2022-02-09 05:56:00,,0827.0,4.99,0.00,22.3,21.6,00.0,31.3,24.1,06.3,0000.0,0002.18,0001.12,0000.77
2022-02-09 05:57:00,,0826.9,5.00,0.00,22.3,21.6,00.0,31.3,24.1,06.3,0000.0,0002.14,0001.16,0000.79
2022-02-09 05:58:00,,0826.8,4.99,0.00,22.3,21.6,00.0,31.3,24.1,06.3,0000.0,0002.17,0001.23,0000.82
2022-02-09 05:59:00,,0826.9,5.01,0.00,22.3,21.6,00.0,31.3,24.1,06.4,0000.0,0002.24,0001.26,0000.84
